Total_Precipitation_Accumulation
0.55 0.60 0.39 0.39 0.49 0.58 0.76 0.78 0.66 0.59 0.66 0.63 0.59 0.59 0.51 0.37 0.40 0.38 0.40 0.53 0.87 1.18 0.84 1.13 0.91 0.84 0.86 0.96 0.95 0.81 0.74 0.73 0.48 0.41 0.35 0.28 0.27 0.33 0.26 0.09 0.14 0.13 0.18
0.47 0.40 0.36 0.38 0.33 0.49 0.94 1.00 0.94 0.92 0.89 0.74 0.78 0.71 0.69 0.53 0.46 0.46 0.29 0.32 0.39 0.90 1.29 0.94 1.33 0.78 0.67 0.72 1.00 0.87 0.68 0.71 0.65 0.53 0.29 0.21 0.26 0.40 0.38 0.32 0.09 0.05 0.13
0.50 0.37 0.31 0.30 0.35 0.49 0.91 1.00 1.32 1.51 1.31 1.01 0.97 0.88 0.78 0.72 0.62 0.62 0.46 0.23 0.23 0.38 1.65 1.47 1.56 0.87 0.94 0.86 0.92 1.19 1.11 1.01 0.60 0.53 0.37 0.21 0.23 0.35 0.32 0.25 0.24 0.10 0.03
0.78 0.86 0.66 0.50 0.43 0.80 1.05 0.85 0.89 1.38 1.26 0.95 0.86 1.14 1.06 1.16 1.06 0.96 0.84 0.50 0.41 0.32 0.96 1.87 1.97 2.04 1.19 1.22 1.25 1.22 1.42 1.16 0.94 0.69 0.45 0.22 0.18 0.35 0.30 0.25 0.18 0.17 0.11
0.81 0.80 0.84 0.90 0.98 1.21 1.22 1.18 1.13 1.07 1.09 0.83 0.75 1.01 1.31 1.68 1.84 1.49 1.14 0.95 0.90 0.84 0.67 1.17 1.26 1.56 1.71 1.34 1.49 1.37 1.21 1.28 1.03 0.75 0.62 0.33 0.15 0.32 0.23 0.16 0.13 0.13 0.09
1.12 0.59 0.49 0.58 0.99 1.21 1.42 1.63 1.55 1.26 1.29 1.20 1.22 1.17 1.12 1.29 1.47 1.68 1.49 1.65 1.55 1.57 1.08 1.03 0.61 0.63 0.73 0.92 1.07 1.01 0.83 0.63 0.59 0.71 0.70 0.50 0.26 0.30 0.26 0.17 0.10 0.07 0.07
1.89 1.04 0.56 0.32 0.43 0.50 0.61 1.05 1.50 1.44 1.51 1.84 2.51 2.43 1.86 1.70 2.06 2.41 2.97 2.94 3.29 2.90 2.34 1.68 0.70 0.37 0.29 0.44 0.53 0.76 0.62 0.44 0.31 0.31 0.46 0.53 0.48 0.31 0.24 0.18 0.10 0.08 0.06
1.21 1.45 0.85 0.61 0.43 0.52 0.58 0.72 1.10 1.21 1.24 1.37 1.64 1.67 1.71 1.35 1.06 0.86 0.88 0.90 0.80 0.83 0.76 1.23 1.10 0.45 0.29 0.27 0.37 0.45 0.51 0.56 0.41 0.27 0.22 0.23 0.27 0.31 0.20 0.16 0.16 0.12 0.07
0.98 1.17 1.05 0.91 0.85 1.18 1.22 1.24 1.46 1.49 1.31 1.29 1.19 1.41 1.18 1.00 0.92 0.95 0.92 0.73 0.70 0.61 0.43 0.62 1.15 0.79 0.50 0.32 0.34 0.39 0.39 0.51 0.64 0.44 0.21 0.13 0.13 0.14 0.16 0.10 0.14 0.21 0.21
1.21 1.50 1.15 1.08 0.87 0.81 0.97 0.99 1.12 1.31 1.48 1.53 1.55 1.66 1.34 1.14 0.94 0.81 0.80 0.84 0.60 0.41 0.31 0.27 0.54 0.91 0.70 0.50 0.33 0.27 0.31 0.43 0.54 0.77 0.47 0.20 0.20 0.10 0.11 0.11 0.10 0.10 0.18
0.60 1.16 1.33 1.29 1.07 0.91 0.80 0.83 0.71 0.69 0.60 0.77 0.54 0.46 0.58 0.51 0.50 0.59 0.52 0.40 0.39 0.23 0.14 0.15 0.21 0.45 0.72 0.78 0.48 0.34 0.22 0.27 0.50 0.56 0.81 0.49 0.28 0.23 0.14 0.12 0.17 0.15 0.14
0.86 1.03 1.31 1.12 1.20 1.15 1.11 1.31 1.38 1.06 0.78 0.65 0.71 0.43 0.39 0.37 0.30 0.37 0.39 0.33 0.38 0.30 0.27 0.23 0.18 0.18 0.31 0.62 0.75 0.53 0.42 0.29 0.37 0.57 0.57 0.83 0.57 0.37 0.33 0.21 0.18 0.22 0.26
0.83 1.01 1.26 1.22 1.12 1.23 1.14 1.16 1.39 1.61 1.57 1.08 0.93 0.81 0.64 0.47 0.42 0.48 0.64 0.54 0.44 0.32 0.33 0.28 0.20 0.19 0.23 0.31 0.41 0.58 0.61 0.41 0.38 0.46 0.58 0.55 0.72 0.75 0.57 0.51 0.47 0.44 0.41
0.46 0.88 1.36 1.51 1.27 1.28 1.36 1.38 1.48 1.49 1.80 1.86 1.23 0.96 0.73 0.61 0.62 0.58 0.65 0.83 0.72 0.48 0.28 0.18 0.13 0.21 0.27 0.30 0.28 0.31 0.42 0.52 0.41 0.57 0.64 0.66 0.63 0.75 0.86 0.64 0.47 0.41 0.39
0.39 0.47 0.59 1.00 1.16 1.28 1.54 1.76 1.59 1.37 1.39 1.52 1.29 0.99 0.83 0.58 0.64 0.64 0.58 0.60 0.66 0.61 0.36 0.20 0.19 0.16 0.18 0.21 0.19 0.14 0.18 0.34 0.46 0.43 0.50 0.73 0.63 0.67 0.71 0.72 0.61 0.41 0.35
0.74 0.80 0.72 0.95 1.23 1.53 1.57 1.58 1.34 1.19 1.27 1.35 1.56 1.48 1.07 0.68 0.64 0.76 0.74 0.73 0.75 0.73 0.62 0.34 0.20 0.13 0.19 0.23 0.24 0.21 0.16 0.27 0.23 0.29 0.33 0.36 0.57 0.63 0.63 0.61 0.64 0.68 0.53
1.06 1.02 1.03 1.03 0.84 0.98 1.32 1.60 1.65 1.56 1.64 1.67 1.74 1.50 1.13 1.03 1.04 1.03 1.05 1.02 0.91 0.91 0.78 0.51 0.28 0.23 0.25 0.28 0.26 0.24 0.18 0.13 0.15 0.16 0.22 0.33 0.36 0.52 0.65 0.59 0.52 0.53 0.62
1.64 1.50 1.19 1.00 0.80 0.67 0.83 1.43 1.74 1.61 1.40 1.63 1.93 1.90 1.55 1.36 1.30 1.22 1.14 1.01 0.82 0.78 0.85 0.67 0.48 0.36 0.28 0.24 0.29 0.33 0.31 0.25 0.18 0.24 0.19 0.25 0.31 0.31 0.47 0.70 0.63 0.52 0.50
0.79 0.83 0.83 0.82 0.84 0.61 0.53 0.72 1.17 1.69 1.56 1.37 1.56 1.86 1.61 1.38 1.21 1.15 1.08 0.89 0.76 0.73 0.84 0.87 0.67 0.49 0.43 0.36 0.39 0.49 0.43 0.25 0.15 0.23 0.17 0.17 0.26 0.35 0.39 0.49 0.74 0.80 0.60
0.36 0.43 0.63 0.78 0.99 0.93 0.95 0.92 0.97 1.06 1.46 1.43 1.32 1.32 1.50 1.44 1.06 0.90 0.89 0.93 0.98 0.91 0.74 0.76 0.70 0.61 0.49 0.46 0.73 0.61 0.40 0.31 0.28 0.28 0.37 0.44 0.54 0.66 0.79 0.71 0.72 0.86 1.02
0.66 0.52 0.48 0.45 0.79 1.15 0.84 0.77 0.72 1.01 1.20 1.40 1.41 1.43 1.20 1.48 1.44 1.23 1.10 0.89 0.91 1.02 1.07 0.93 0.87 0.81 0.76 0.80 0.87 0.80 0.82 0.69 0.77 0.87 0.77 0.69 0.73 0.78 0.91 1.33 1.33 1.32 1.17
1.02 0.78 0.85 0.68 0.62 0.86 1.28 0.93 0.79 0.61 0.82 1.03 1.09 1.08 1.48 1.70 1.24 1.26 1.35 1.38 1.31 1.18 1.08 1.07 0.97 0.86 0.70 0.69 0.76 0.89 0.92 1.05 1.14 0.89 0.93 1.00 0.82 0.79 0.83 0.88 1.40 1.45 1.45
1.26 1.24 1.00 0.98 0.91 0.87 1.41 0.97 1.07 0.96 0.85 0.71 0.85 0.96 0.90 1.58 1.91 1.33 1.46 1.55 1.71 1.90 1.61 1.38 1.22 1.24 1.29 1.33 1.38 1.34 1.24 1.20 1.10 0.96 1.17 1.27 1.10 1.10 1.09 1.27 1.45 1.07 1.25
1.62 1.52 1.21 1.00 0.77 0.81 1.03 1.30 1.43 1.08 0.99 0.80 0.73 0.81 0.90 0.99 1.65 1.71 1.38 1.56 1.69 1.99 2.40 2.20 2.03 2.04 2.02 1.79 1.41 1.41 1.59 1.74 1.74 1.70 1.80 1.93 1.48 1.38 1.20 1.17 1.61 1.14 1.02
1.33 1.45 1.29 0.95 0.85 0.87 1.30 1.24 1.25 0.92 1.10 1.06 0.94 1.03 1.02 0.86 1.47 1.71 1.35 1.50 1.60 1.87 2.46 2.37 2.19 2.24 2.22 2.28 1.85 1.65 1.95 2.26 2.65 2.42 2.26 2.23 2.06 1.88 1.79 1.63 1.55 1.47 1.19
1.38 1.22 1.20 1.18 1.38 1.09 1.48 1.36 1.34 0.94 0.86 1.02 1.01 1.15 1.77 1.29 1.34 1.14 1.00 1.01 1.47 1.89 1.78 1.97 1.99 2.06 2.15 2.45 2.68 2.16 2.13 2.52 2.75 2.69 2.25 2.27 2.17 2.20 2.42 1.84 1.39 1.27 1.17